When you browse on this site, cookies collect data to enhance your experience and personalize the content and advertising you see.
Visit our Privacy Policy to learn more. By continuing to use the site, you agree to this use of cookies and data.
  • In Switzerland
  • List of Countries
  • For 7 days
  • Water Temperature
  • Weather Map
  • Weather Widgets
  • user-avatar
    Login

    Hourly Weather Bern

    Today, 30 May, Saturday

    Time Temperature Precipitation Wind Pressure Humidity
    00:00 +9°C° 0 mm 1 mps 716 mmHg 93%
    01:00 +9°C° 0 mm 1 mps 716 mmHg 93%
    02:00 +8°C° 0 mm 1 mps 716 mmHg 93%
    03:00 +8°C° 0 mm 1 mps 716 mmHg 94%
    04:00 +9°C° 0 mm 1 mps 716 mmHg 89%
    05:00 +10°C° 0 mm 1 mps 716 mmHg 85%
    06:00 +12°C° 0 mm 1 mps 716 mmHg 80%
    07:00 +14°C° 0 mm 2 mps 716 mmHg 74%
    08:00 +15°C° 0 mm 2 mps 716 mmHg 68%
    09:00 +17°C° 0 mm 3 mps 716 mmHg 62%
    10:00 +18°C° 0.1 mm 3 mps 716 mmHg 58%
    11:00 +18°C° 0.1 mm 3 mps 716 mmHg 54%
    12:00 +19°C° 0.1 mm 4 mps 716 mmHg 50%
    13:00 +19°C° 0 mm 4 mps 715 mmHg 49%
    14:00 +19°C° 0 mm 4 mps 715 mmHg 47%
    15:00 +19°C° 0 mm 4 mps 715 mmHg 46%
    16:00 +18°C° 0 mm 4 mps 715 mmHg 53%
    17:00 +17°C° 0 mm 3 mps 715 mmHg 60%
    18:00 +16°C° 0 mm 3 mps 714 mmHg 67%
    19:00 +14°C° 0 mm 2 mps 715 mmHg 73%
    20:00 +12°C° 0 mm 2 mps 715 mmHg 80%
    21:00 +9°C° 0 mm 2 mps 715 mmHg 87%
    22:00 +9°C° 0 mm 2 mps 715 mmHg 89%
    23:00 +8°C° 0 mm 2 mps 715 mmHg 91%

    Tomorrow, 31 May, Sunday

    Time Temperature Precipitation Wind Pressure Humidity
    00:00 +9°C° 0 mm 1 mps 715 mmHg 93%
    01:00 +8°C° 0 mm 1 mps 715 mmHg 93%
    02:00 +8°C° 0 mm 1 mps 715 mmHg 93%
    03:00 +8°C° 0 mm 1 mps 714 mmHg 94%
    04:00 +9°C° 0 mm 1 mps 715 mmHg 89%
    05:00 +9°C° 0 mm 2 mps 715 mmHg 84%
    06:00 +10°C° 0 mm 2 mps 715 mmHg 79%
    07:00 +13°C° 0 mm 2 mps 715 mmHg 71%
    08:00 +14°C° 0 mm 3 mps 715 mmHg 63%
    09:00 +17°C° 0 mm 3 mps 715 mmHg 56%
    10:00 +18°C° 0 mm 4 mps 715 mmHg 53%
    11:00 +19°C° 0 mm 4 mps 715 mmHg 49%
    12:00 +20°C° 0 mm 4 mps 715 mmHg 46%
    13:00 +20°C° 0 mm 4 mps 715 mmHg 47%
    14:00 +20°C° 0 mm 4 mps 715 mmHg 48%
    15:00 +20°C° 0 mm 4 mps 715 mmHg 49%
    16:00 +19°C° 0 mm 3 mps 715 mmHg 55%
    17:00 +18°C° 0 mm 3 mps 715 mmHg 61%
    18:00 +17°C° 0 mm 3 mps 714 mmHg 67%
    19:00 +15°C° 0 mm 2 mps 714 mmHg 74%
    20:00 +13°C° 0 mm 2 mps 715 mmHg 80%
    21:00 +10°C° 0 mm 2 mps 715 mmHg 87%
    22:00 +9°C° 0 mm 2 mps 715 mmHg 88%
    23:00 +9°C° 0 mm 2 mps 714 mmHg 89%

    Day after tomorrow, 1 June, Monday

    Time Temperature Precipitation Wind Pressure Humidity
    00:00 +9°C° 0 mm 1 mps 714 mmHg 91%
    01:00 +9°C° 0 mm 1 mps 714 mmHg 91%
    02:00 +8°C° 0 mm 1 mps 714 mmHg 91%
    03:00 +8°C° 0 mm 1 mps 714 mmHg 91%
    04:00 +10°C° 0 mm 1 mps 715 mmHg 86%
    05:00 +11°C° 0 mm 1 mps 715 mmHg 81%
    06:00 +13°C° 0 mm 1 mps 715 mmHg 77%
    07:00 +15°C° 0 mm 1 mps 715 mmHg 70%
    08:00 +17°C° 0 mm 2 mps 715 mmHg 63%
    09:00 +19°C° 0 mm 2 mps 715 mmHg 56%
    10:00 +20°C° 0 mm 2 mps 715 mmHg 52%
    11:00 +23°C° 0 mm 2 mps 715 mmHg 48%
    12:00 +24°C° 0 mm 2 mps 715 mmHg 43%
    13:00 +24°C° 0 mm 2 mps 715 mmHg 43%
    14:00 +24°C° 0 mm 2 mps 715 mmHg 42%
    15:00 +25°C° 0 mm 2 mps 715 mmHg 42%
    16:00 +23°C° 0 mm 2 mps 715 mmHg 51%
    17:00 +21°C° 0 mm 2 mps 715 mmHg 60%
    18:00 +19°C° 0 mm 2 mps 715 mmHg 70%
    19:00 +18°C° 0 mm 2 mps 715 mmHg 75%
    20:00 +16°C° 0 mm 2 mps 715 mmHg 81%
    21:00 +14°C° 0 mm 2 mps 715 mmHg 86%
    22:00 +13°C° 0 mm 1 mps 715 mmHg 87%
    23:00 +13°C° 0 mm 1 mps 715 mmHg 87%

    2 June, Tuesday

    Time Temperature Precipitation Wind Pressure Humidity
    00:00 +12°C° 0 mm 1 mps 714 mmHg 88%
    01:00 +12°C° 0 mm 1 mps 714 mmHg 89%
    02:00 +11°C° 0 mm 1 mps 714 mmHg 89%
    03:00 +11°C° 0 mm 1 mps 714 mmHg 89%
    04:00 +11°C° 0 mm 0 mps 714 mmHg 85%
    05:00 +13°C° 0 mm 0 mps 714 mmHg 82%
    06:00 +14°C° 0 mm 0 mps 714 mmHg 78%
    07:00 +18°C° 0 mm 1 mps 714 mmHg 71%
    08:00 +20°C° 0 mm 1 mps 714 mmHg 63%
    09:00 +22°C° 0 mm 1 mps 714 mmHg 56%
    10:00 +23°C° 0 mm 2 mps 714 mmHg 52%
    11:00 +24°C° 0 mm 2 mps 714 mmHg 49%
    12:00 +25°C° 0 mm 2 mps 713 mmHg 45%
    13:00 +25°C° 0.1 mm 2 mps 713 mmHg 45%
    14:00 +25°C° 0.1 mm 3 mps 712 mmHg 46%
    15:00 +25°C° 0.1 mm 3 mps 712 mmHg 46%
    16:00 +24°C° 0.1 mm 3 mps 712 mmHg 54%
    17:00 +21°C° 0.1 mm 2 mps 711 mmHg 62%
    18:00 +20°C° 0.1 mm 2 mps 711 mmHg 70%
    19:00 +18°C° 0.1 mm 2 mps 711 mmHg 74%
    20:00 +17°C° 0.1 mm 2 mps 710 mmHg 77%
    21:00 +15°C° 0.1 mm 2 mps 710 mmHg 81%
    22:00 +15°C° 0.2 mm 1 mps 710 mmHg 84%
    23:00 +14°C° 0.2 mm 1 mps 710 mmHg 86%

    3 June, Wednesday

    Time Temperature Precipitation Wind Pressure Humidity
    00:00 +13°C° 0.2 mm 1 mps 709 mmHg 89%
    01:00 +13°C° 0.4 mm 1 mps 709 mmHg 90%
    02:00 +13°C° 0.4 mm 1 mps 709 mmHg 91%
    03:00 +13°C° 0.4 mm 1 mps 709 mmHg 92%
    04:00 +13°C° 0.1 mm 1 mps 709 mmHg 91%
    05:00 +14°C° 0.1 mm 1 mps 709 mmHg 91%
    06:00 +14°C° 0.1 mm 1 mps 709 mmHg 90%
    07:00 +16°C° 0.2 mm 1 mps 709 mmHg 84%
    08:00 +18°C° 0.2 mm 1 mps 709 mmHg 78%
    09:00 +20°C° 0.2 mm 1 mps 709 mmHg 72%
    10:00 +21°C° 0.2 mm 1 mps 709 mmHg 67%
    11:00 +22°C° 0.2 mm 1 mps 709 mmHg 63%
    12:00 +23°C° 0.2 mm 1 mps 709 mmHg 58%
    13:00 +23°C° 0.4 mm 2 mps 709 mmHg 59%
    14:00 +23°C° 0.4 mm 2 mps 709 mmHg 61%
    15:00 +23°C° 0.4 mm 2 mps 709 mmHg 62%
    16:00 +22°C° 0.3 mm 1 mps 709 mmHg 68%
    17:00 +21°C° 0.3 mm 1 mps 709 mmHg 75%
    18:00 +18°C° 0.3 mm 0 mps 709 mmHg 81%
    19:00 +19°C° 0 mm 1 mps 709 mmHg 83%
    20:00 +18°C° 0 mm 1 mps 709 mmHg 84%
    21:00 +15°C° 0 mm 1 mps 710 mmHg 86%
    22:00 +15°C° 0 mm 1 mps 710 mmHg 86%
    23:00 +14°C° 0 mm 1 mps 709 mmHg 86%

    4 June, Thursday

    Time Temperature Precipitation Wind Pressure Humidity
    00:00 +14°C° 0 mm 1 mps 709 mmHg 86%
    01:00 +14°C° 0 mm 1 mps 709 mmHg 87%
    02:00 +13°C° 0 mm 1 mps 709 mmHg 88%
    03:00 +12°C° 0 mm 1 mps 709 mmHg 89%
    04:00 +14°C° 0 mm 1 mps 709 mmHg 86%
    05:00 +14°C° 0 mm 0 mps 709 mmHg 83%
    06:00 +16°C° 0 mm 0 mps 710 mmHg 80%
    07:00 +20°C° 0.1 mm 1 mps 710 mmHg 73%
    08:00 +21°C° 0.1 mm 1 mps 710 mmHg 67%
    09:00 +23°C° 0.1 mm 1 mps 710 mmHg 60%
    10:00 +25°C° 0.2 mm 1 mps 710 mmHg 57%
    11:00 +26°C° 0.2 mm 1 mps 710 mmHg 53%
    12:00 +27°C° 0.2 mm 1 mps 710 mmHg 50%
    13:00 +27°C° 0.3 mm 1 mps 710 mmHg 50%
    14:00 +27°C° 0.3 mm 1 mps 709 mmHg 50%
    15:00 +27°C° 0.3 mm 1 mps 709 mmHg 50%
    16:00 +25°C° 0.3 mm 1 mps 709 mmHg 59%
    17:00 +24°C° 0.3 mm 1 mps 709 mmHg 68%
    18:00 +22°C° 0.3 mm 1 mps 709 mmHg 77%
    19:00 +21°C° 0.1 mm 1 mps 709 mmHg 80%
    20:00 +19°C° 0.1 mm 1 mps 709 mmHg 83%
    21:00 +18°C° 0.1 mm 1 mps 709 mmHg 86%
    22:00 +16°C° 0 mm 1 mps 709 mmHg 86%
    23:00 +16°C° 0 mm 1 mps 708 mmHg 87%
    Show more